Regional Weather Roundup
Issued by NWS

Home | Current Version | Previous Version | Text Only | Print | Product List | Glossary On
Versions: 1 2 3 4 5 6 7 8 9 10 11 12 13 14 15 16 17 18 19 20 21 22 23 24 25 26 27 28 29 30 31 32 33 34 35 36 37 38 39 40 41 42 43 44 45 46 47 48 49 50
000
ASUS44 KFWD 240803
RWRTX
NORTH TEXAS HOURLY WEATHER ROUNDUP
NATIONAL WEATHER SERVICE FORT WORTH TX
300 AM CDT WED MAY 24 2017

NOTE: "FAIR" INDICATES FEW OR NO CLOUDS BELOW 12,000 FEET WITH NO
SIGNIFICANT WEATHER AND/OR OBSTRUCTIONS TO VISIBILITY.

TXZ118-119-240900-
DALLAS/FORT WORTH METROPLEX

CITY           SKY/WX    TMP DP  RH WIND       PRES   REMARKS
DFW AIRPORT    CLEAR     61  50  67 W12       29.82F
DALLAS LOVE    CLEAR     58  51  78 CALM      29.84F
FTW MEACHAM    CLEAR     59  52  77 W8        29.85F
DAL-EXECUTIVE  CLEAR     57  52  83 W8        29.83F
FTW-ALLIANCE   CLEAR     56  50  80 W8        29.85F
FTW-NAS-JRB    CLEAR     58  51  78 NW5       29.87S
FTW-SPINKS     CLEAR     56  51  82 W12G17    29.88S
ARLINGTON      CLEAR     56  51  84 W8        29.85F
GRAND PRAIRIE  CLEAR     57  51  78 W8        29.86F
ADDISON        CLEAR     58  51  76 W5        29.85F
MESQUITE       CLEAR     58  51  78 W6        29.83S
LANCASTER      CLEAR     55  51  86 W5        29.85S
$$

TXZ091>094-102>105-117-120-121-131>134-240900-
NORTH CENTRAL TEXAS

CITY           SKY/WX    TMP DP  RH WIND       PRES   REMARKS
SHRMAN/DENISON CLEAR     52  50  92 CALM      29.84F
GAINESVILLE    CLEAR     54  47  76 N8        29.87F
BOWIE          CLEAR     55  47  74 NW6       29.88S
BRIDGEPORT     CLEAR     51  49  91 SW5       29.90S
DECATUR        CLEAR     54  49  82 W7        29.87F
DENTON         CLEAR     52  50  93 W8        29.85F
MCKINNEY       CLEAR     57  53  86 NW8       29.83F
BONHAM         CLEAR     52  50  93 W6        29.83F
GREENVILLE     CLEAR     57  54  88 W5        29.82F
ROCKWALL       CLEAR     60  52  75 NW6       29.83F
TERRELL        CLEAR     54  50  86 W7        29.82F
WAXAHACHIE     CLEAR     55  52  89 W5        29.87S
CLEBURNE       CLEAR     54  54 100 W8        29.89F
GRANBURY       CLEAR     52  50  92 CALM      29.90S
$$

TXZ083>090-098>101-113>116-127>130-139>142-154-155-240900-
WESTERN NORTH TEXAS

CITY           SKY/WX    TMP DP  RH WIND       PRES   REMARKS
WICHITA FALLS  PTCLDY    55  45  68 NW10      29.89F
WF-KICKAPOO    PTCLDY    56  46  70 NW8       29.91F
VERNON         MOCLDY    53  44  70 W7        29.93S
ABILENE        CLEAR     51  49  92 CALM      29.96F
ABILENE-DYESS  CLEAR     54  47  76 W7        29.94F
GRAHAM           N/A     49  32  51 CALM      29.89F
BRECKENRIDGE   CLEAR     51  50  95 SW5       29.92F
CISCO          CLEAR     55  48  76 W7        29.94S
EASTLAND       CLEAR     47  46  97 CALM      29.93S
RANGER         CLEAR     51  49  91 W6        29.93S
MINERAL WELLS  CLEAR     52  48  86 W5        29.88F
STEPHENVILLE   CLEAR     55  49  79 W3        29.94F
COMANCHE       CLEAR     56  49  75 W8        29.93F
COLEMAN        PTCLDY    54  46  74 W8        29.96S
$$

TXZ143>147-156>162-174-175-240900-
CENTRAL TEXAS

CITY           SKY/WX    TMP DP  RH WIND       PRES   REMARKS
WACO           CLEAR     54  52  93 W10       29.88S
WACO-MCGREGOR  CLEAR     53  51  93 W3        29.89F
HILLSBORO      CLEAR     54  51  92 W3        29.88S
CORSICANA      PTCLDY    55  53  93 W8        29.86F
MEXIA          CLEAR     55  52  92 W8        29.86S
HEARNE         PTCLDY    54  54 100 W3        29.90F
CAMERON        CLEAR     56  52  85 W9        29.89F
TEMPLE         CLEAR     54  51  90 CALM      29.91F
KILLEEN        CLEAR     56  49  78 CALM      29.88F
KILLEEN-SKYLRK CLEAR     52  50  93 W3        29.90F
FORT HOOD      CLEAR     54  50  84 NW6       29.87F
HAMILTON       CLEAR     56  49  78 NW9       29.92F
LAMPASAS       CLEAR     55  52  89 NW3       29.91F
$$

TXZ095>097-106>112-122>126-135>138-148>153-164>167-240900-
EAST TEXAS

CITY           SKY/WX    TMP DP  RH WIND       PRES   REMARKS
PARIS          CLEAR     55  52  88 NW10      29.79F
SULPHUR SPRNGS CLEAR     58  54  87 W9        29.82F
MOUNT PLEASANT CLEAR     57  54  88 W6        29.80F
GILMER         CLEAR     56  53  88 CALM      29.78F
MINEOLA        CLEAR     55  54  94 W3        29.80F
TYLER          CLEAR     56  54  93 SW5       29.80F
LONGVIEW       CLEAR     57  57 100 W5        29.78F
MARSHALL       CLEAR     56  54  91 W3        29.79F
ATHENS         CLEAR     54  54 100 CALM      29.82S
PALESTINE      PTCLDY    54  54 100 CALM      29.84F FOG
JACKSONVILLE   CLEAR     56  55  94 W5        29.83F
HENDERSON        N/A    N/A N/A N/A CALM      29.81F
CENTER         SUNNY     62  60  95 NW5       29.80F
NACOGDOCHES    CLEAR     57  54  88 NW7       29.78F
LUFKIN         CLEAR     57  57 100 W5        29.80F
$$

SUPPLEMENTAL OBSERVATIONS (NWS FORT WORTH AREA)

CITY           SKY/WX    TMP DP  RH WIND       PRES   REMARKS
$$

SUPPLEMENTAL OBSERVATIONS (NWS NORMAN AREA)

CITY           SKY/WX    TMP DP  RH WIND       PRES   REMARKS
GOODLETT         N/A     51  41  68 W12       29.94S
ODELL            N/A     48  45  89 W3        29.94S
CROWELL          N/A     55  43  64 NW8       29.94F
KNOX CITY        N/A     50  45  84 W6        29.96S
SEYMOUR          N/A     51  48  89 W6        29.93F
$$

SUPPLEMENTAL OBSERVATIONS (NWS SAN ANGELO AREA)

CITY           SKY/WX    TMP DP  RH WIND       PRES   REMARKS
WEINERT          N/A     52  47  84 W5        29.95S
THROCKMORTON     N/A     54  51  88 SW7       29.93F
STAMFORD         N/A     55  51  87 W13       29.95F
CLYDE            N/A     51  47  86 W5        29.96F
$$

SUPPLEMENTAL OBSERVATIONS (NWS SHREVEPORT AREA)

CITY           SKY/WX    TMP DP  RH WIND       PRES   REMARKS
$$

SUPPLEMENTAL OBSERVATIONS ARE A COLLECTION OF AUTOMATED INSTRUMENTS
THAT ARE MAINTAINED BY A VARIETY OF FEDERAL AND STATE AGENCIES.
CERTAIN ELEMENTS...SUCH AS HUMIDITY VALUES AND SUSTAINED WIND
SPEEDS...MAY BE APPROXIMATED.




USA.gov is the U.S. government's official web portal to all federal, state and local government web resources and services.